| time (UTC) | temp F | wind direction | speed knots | gust knots | rain 1hr in | rain 24hr in | rain mn in | humidity % | barometer mb |
| 20260510164134 | 68 | 94 | 0.0 | 0.0 | 0.00 | 0.00 | 0.00 | 72 | 1012.8 |
| 20260510163629 | 67 | 102 | 0.0 | 0.0 | 0.00 | 0.00 | 0.00 | 73 | 1012.7 |
| 20260510163125 | 67 | 141 | 0.0 | 0.9 | 0.00 | 0.00 | 0.00 | 72 | 1012.7 |
| 20260510162620 | 66 | 97 | 0.9 | 0.9 | 0.00 | 0.00 | 0.00 | 73 | 1012.7 |
| 20260510162117 | 66 | 107 | 0.0 | 0.0 | 0.00 | 0.00 | 0.00 | 75 | 1012.7 |
| 20260510161612 | 66 | 146 | 0.0 | 0.9 | 0.00 | 0.00 | 0.00 | 75 | 1012.6 |
| 20260510161110 | 66 | 107 | 0.0 | 0.0 | 0.00 | 0.00 | 0.00 | 74 | 1012.8 |
| 20260510160606 | 66 | 51 | 0.9 | 0.9 | 0.00 | 0.00 | 0.00 | 72 | 1012.7 |
| 20260510160106 | 66 | 31 | 0.0 | 0.9 | 0.00 | 0.00 | 0.00 | 74 | 1012.6 |
| 20260510155603 | 65 | 98 | 0.0 | 0.0 | 0.00 | 0.00 | 0.00 | 75 | 1012.7 |
| 20260510155059 | 65 | 103 | 0.0 | 0.0 | 0.00 | 0.00 | 0.00 | 76 | 1012.7 |
| 20260510154555 | 64 | 104 | 0.0 | 0.0 | 0.00 | 0.00 | 0.00 | 77 | 1012.5 |
| 20260510154050 | 64 | 139 | 0.9 | 0.9 | 0.00 | 0.00 | 0.00 | 77 | 1012.9 |
| 20260510153545 | 64 | 105 | 0.0 | 0.0 | 0.00 | 0.00 | 0.00 | 76 | 1012.9 |
| 20260510153043 | 63 | 103 | 0.0 | 0.0 | 0.00 | 0.00 | 0.00 | 78 | 1012.8 |
| 20260510152539 | 63 | 121 | 0.0 | 0.9 | 0.00 | 0.00 | 0.00 | 77 | 1012.8 |
| 20260510152036 | 62 | 99 | 0.0 | 0.0 | 0.00 | 0.00 | 0.00 | 81 | 1012.9 |
| 20260510151532 | 62 | 101 | 0.0 | 0.0 | 0.00 | 0.00 | 0.00 | 80 | 1012.6 |
| 20260510151030 | 62 | 100 | 0.0 | 0.0 | 0.00 | 0.00 | 0.00 | 81 | 1012.6 |
| 20260510150525 | 61 | 103 | 0.0 | 0.0 | 0.00 | 0.00 | 0.00 | 81 | 1012.9 |
| 20260510150021 | 61 | 122 | 0.0 | 0.0 | 0.00 | 0.00 | 0.00 | 82 | 1012.9 |
| 20260510145518 | 62 | 94 | 0.0 | 0.0 | 0.00 | 0.00 | 0.00 | 82 | 1012.9 |
| 20260510145014 | 61 | 118 | 0.0 | 0.0 | 0.00 | 0.00 | 0.00 | 81 | 1013.1 |
| 20260510144511 | 60 | 122 | 0.9 | 0.9 | 0.00 | 0.00 | 0.00 | 83 | 1012.9 |
| 20260510144007 | 61 | 116 | 0.0 | 0.9 | 0.00 | 0.00 | 0.00 | 83 | 1012.8 |
| 20260510143502 | 60 | 106 | 0.0 | 0.0 | 0.00 | 0.00 | 0.00 | 83 | 1012.7 |
| 20260510142959 | 60 | 118 | 0.0 | 0.0 | 0.00 | 0.00 | 0.00 | 84 | 1012.8 |
| 20260510142456 | 60 | 110 | 0.0 | 0.0 | 0.00 | 0.00 | 0.00 | 85 | 1012.7 |
| 20260510141953 | 59 | 106 | 0.0 | 0.0 | 0.00 | 0.00 | 0.00 | 86 | 1012.9 |
| 20260510141449 | 59 | 55 | 0.9 | 1.7 | 0.00 | 0.00 | 0.00 | 86 | 1012.8 |
| 20260510140946 | 58 | 101 | 0.0 | 0.0 | 0.00 | 0.00 | 0.00 | 87 | 1012.8 |
| 20260510140443 | 58 | 345 | 0.9 | 0.9 | 0.00 | 0.00 | 0.00 | 88 | 1012.6 |
| 20260510135942 | 57 | 119 | 0.0 | 0.0 | 0.00 | 0.00 | 0.00 | 90 | 1012.6 |
| 20260510135438 | 57 | 116 | 0.0 | 0.0 | 0.00 | 0.00 | 0.00 | 91 | 1012.6 |
| 20260510134935 | 56 | 116 | 0.0 | 0.0 | 0.00 | 0.00 | 0.00 | 91 | 1012.7 |
| 20260510134432 | 56 | 113 | 0.0 | 0.0 | 0.00 | 0.00 | 0.00 | 93 | 1012.7 |
| 20260510133928 | 55 | 97 | 0.0 | 0.0 | 0.00 | 0.00 | 0.00 | 96 | 1012.6 |
| 20260510133424 | 55 | 98 | 0.0 | 0.0 | 0.00 | 0.00 | 0.00 | 97 | 1012.6 |
| 20260510132920 | 55 | 97 | 0.0 | 0.0 | 0.00 | 0.00 | 0.00 | 97 | 1012.8 |
| 20260510132418 | 55 | 97 | 0.0 | 0.0 | 0.00 | 0.00 | 0.00 | 98 | 1012.5 |
| 20260510131915 | 55 | 176 | 0.0 | 0.9 | 0.00 | 0.00 | 0.00 | 98 | 1012.5 |
| 20260510131412 | 55 | 93 | 0.0 | 0.0 | 0.00 | 0.00 | 0.00 | 99 | 1012.5 |
| 20260510130909 | 55 | 112 | 0.0 | 0.0 | 0.00 | 0.00 | 0.00 | 99 | 1012.4 |
| 20260510130406 | 54 | 112 | 0.0 | 0.0 | 0.00 | 0.00 | 0.00 | 99 | 1012.1 |
| 20260510125903 | 54 | 112 | 0.0 | 0.0 | 0.00 | 0.00 | 0.00 | 99 | 1012.3 |
| 20260510125358 | 54 | 120 | 0.0 | 0.0 | 0.00 | 0.00 | 0.00 | 99 | 1012.0 |
| 20260510124855 | 53 | 96 | 0.0 | 0.0 | 0.00 | 0.00 | 0.00 | 99 | 1012.0 |
| 20260510124352 | 53 | 83 | 0.0 | 0.0 | 0.00 | 0.00 | 0.00 | 99 | 1012.0 |
| 20260510123848 | 53 | 80 | 0.0 | 0.0 | 0.00 | 0.00 | 0.00 | 99 | 1011.8 |
| 20260510123344 | 53 | 131 | 0.0 | 0.0 | 0.00 | 0.00 | 0.00 | 99 | 1012.0 |
| 20260510122840 | 53 | 117 | 0.0 | 0.0 | 0.00 | 0.00 | 0.00 | 99 | 1011.9 |
| 20260510122336 | 53 | 124 | 0.0 | 0.0 | 0.00 | 0.00 | 0.00 | 99 | 1012.0 |
| 20260510121833 | 53 | 108 | 0.0 | 0.0 | 0.00 | 0.00 | 0.00 | 99 | 1011.9 |
| 20260510121330 | 53 | 108 | 0.0 | 0.0 | 0.00 | 0.00 | 0.00 | 99 | 1011.7 |
| 20260510120827 | 53 | 108 | 0.0 | 0.0 | 0.00 | 0.00 | 0.00 | 99 | 1012.0 |
| 20260510120324 | 53 | 116 | 0.0 | 0.0 | 0.00 | 0.00 | 0.00 | 99 | 1011.7 |
| 20260510115820 | 52 | 97 | 0.0 | 0.0 | 0.00 | 0.00 | 0.00 | 99 | 1011.7 |
| 20260510115318 | 52 | 97 | 0.0 | 0.0 | 0.00 | 0.00 | 0.00 | 99 | 1011.5 |
| 20260510114813 | 52 | 97 | 0.0 | 0.0 | 0.00 | 0.00 | 0.00 | 99 | 1011.4 |
| 20260510114310 | 52 | 97 | 0.0 | 0.0 | 0.00 | 0.00 | 0.00 | 99 | 1011.5 |
| 20260510113805 | 52 | 97 | 0.0 | 0.0 | 0.00 | 0.00 | 0.00 | 99 | 1011.6 |
| 20260510113303 | 52 | 95 | 0.0 | 0.0 | 0.00 | 0.00 | 0.00 | 99 | 1011.5 |
| 20260510112759 | 52 | 95 | 0.0 | 0.0 | 0.00 | 0.00 | 0.00 | 99 | 1011.9 |
| 20260510112256 | 52 | 95 | 0.0 | 0.0 | 0.00 | 0.00 | 0.00 | 99 | 1011.6 |
| 20260510111752 | 52 | 83 | 0.0 | 0.0 | 0.00 | 0.00 | 0.00 | 99 | 1011.3 |
| 20260510111249 | 52 | 98 | 0.0 | 0.0 | 0.00 | 0.00 | 0.00 | 99 | 1011.4 |
| 20260510110748 | 51 | 109 | 0.0 | 0.0 | 0.00 | 0.00 | 0.00 | 99 | 1011.2 |
| 20260510110247 | 52 | 112 | 0.0 | 0.0 | 0.00 | 0.00 | 0.00 | 99 | 1011.3 |
| 20260510105746 | 52 | 112 | 0.0 | 0.0 | 0.00 | 0.00 | 0.00 | 99 | 1011.3 |
| 20260510105241 | 51 | 79 | 0.0 | 0.0 | 0.00 | 0.00 | 0.00 | 99 | 1011.2 |
| 20260510104738 | 51 | 88 | 0.0 | 0.0 | 0.00 | 0.00 | 0.00 | 99 | 1010.9 |
| 20260510104236 | 51 | 88 | 0.0 | 0.0 | 0.00 | 0.00 | 0.00 | 99 | 1010.8 |
| 20260510103731 | 51 | 88 | 0.0 | 0.0 | 0.00 | 0.00 | 0.00 | 99 | 1010.9 |
| 20260510103229 | 51 | 88 | 0.0 | 0.0 | 0.00 | 0.00 | 0.00 | 99 | 1010.9 |
| 20260510102728 | 51 | 88 | 0.0 | 0.0 | 0.00 | 0.00 | 0.00 | 99 | 1010.8 |
| 20260510102224 | 51 | 88 | 0.0 | 0.0 | 0.00 | 0.00 | 0.00 | 99 | 1010.8 |
| 20260510101722 | 51 | 88 | 0.0 | 0.0 | 0.00 | 0.00 | 0.00 | 99 | 1010.8 |
| 20260510101221 | 51 | 88 | 0.0 | 0.0 | 0.00 | 0.00 | 0.00 | 99 | 1010.9 |
| 20260510100716 | 51 | 88 | 0.0 | 0.0 | 0.00 | 0.00 | 0.00 | 99 | 1011.0 |
| 20260510100214 | 51 | 87 | 0.0 | 0.0 | 0.00 | 0.00 | 0.00 | 99 | 1011.0 |
| 20260510095709 | 51 | 87 | 0.0 | 0.0 | 0.00 | 0.00 | 0.00 | 99 | 1010.9 |
| 20260510095205 | 51 | 87 | 0.0 | 0.0 | 0.00 | 0.00 | 0.00 | 99 | 1011.0 |
| 20260510094703 | 51 | 88 | 0.0 | 0.0 | 0.00 | 0.00 | 0.00 | 99 | 1011.0 |
| 20260510094200 | 51 | 88 | 0.0 | 0.0 | 0.00 | 0.00 | 0.00 | 99 | 1010.9 |
| 20260510093655 | 51 | 88 | 0.0 | 0.0 | 0.00 | 0.00 | 0.00 | 99 | 1010.6 |
| 20260510093153 | 51 | 88 | 0.0 | 0.0 | 0.00 | 0.00 | 0.00 | 99 | 1010.8 |
| 20260510092649 | 51 | 89 | 0.0 | 0.0 | 0.00 | 0.00 | 0.00 | 99 | 1010.9 |
| 20260510092145 | 51 | 84 | 0.0 | 0.0 | 0.00 | 0.00 | 0.00 | 99 | 1011.0 |
| 20260510091641 | 51 | 84 | 0.0 | 0.0 | 0.00 | 0.00 | 0.00 | 99 | 1011.0 |
| 20260510091137 | 51 | 84 | 0.0 | 0.0 | 0.00 | 0.00 | 0.00 | 99 | 1011.2 |
| 20260510090634 | 51 | 84 | 0.0 | 0.0 | 0.00 | 0.00 | 0.00 | 99 | 1011.2 |
| 20260510090130 | 51 | 84 | 0.0 | 0.0 | 0.00 | 0.00 | 0.00 | 99 | 1011.2 |
| 20260510085620 | 51 | 84 | 0.0 | 0.0 | 0.00 | 0.00 | 0.00 | 99 | 1011.3 |
| 20260510085115 | 51 | 84 | 0.0 | 0.0 | 0.00 | 0.00 | 0.00 | 99 | 1011.3 |
| 20260510084612 | 51 | 77 | 0.0 | 0.0 | 0.00 | 0.00 | 0.00 | 99 | 1011.5 |
| 20260510084108 | 51 | 117 | 0.0 | 0.0 | 0.00 | 0.00 | 0.00 | 99 | 1011.4 |
| 20260510083605 | 51 | 124 | 0.0 | 0.0 | 0.00 | 0.00 | 0.00 | 99 | 1011.4 |
| 20260510083101 | 51 | 92 | 0.0 | 0.0 | 0.00 | 0.00 | 0.00 | 99 | 1011.3 |
| 20260510082558 | 51 | 220 | 0.0 | 0.0 | 0.00 | 0.00 | 0.00 | 99 | 1011.4 |
| 20260510082053 | 51 | 113 | 0.0 | 0.0 | 0.00 | 0.00 | 0.00 | 99 | 1011.3 |
| 20260510081548 | 51 | 114 | 0.0 | 0.0 | 0.00 | 0.00 | 0.00 | 99 | 1011.1 |
| 20260510081044 | 51 | 263 | 0.9 | 1.7 | 0.00 | 0.00 | 0.00 | 99 | 1011.0 |
| 20260510080544 | 51 | 32 | 0.0 | 0.9 | 0.00 | 0.00 | 0.00 | 99 | 1011.3 |
| 20260510080041 | 51 | 93 | 0.0 | 0.9 | 0.00 | 0.00 | 0.00 | 99 | 1011.0 |
| 20260510075538 | 51 | 4 | 0.9 | 0.9 | 0.00 | 0.00 | 0.00 | 99 | 1011.2 |
| 20260510075035 | 52 | 59 | 0.0 | 0.0 | 0.00 | 0.00 | 0.00 | 99 | 1010.5 |
| 20260510074533 | 52 | 86 | 0.0 | 0.0 | 0.00 | 0.00 | 0.00 | 99 | 1010.4 |
| 20260510074028 | 52 | 83 | 0.0 | 0.0 | 0.00 | 0.00 | 0.00 | 99 | 1010.5 |
| 20260510073524 | 52 | 86 | 0.0 | 0.0 | 0.00 | 0.00 | 0.00 | 99 | 1010.5 |
| 20260510073021 | 52 | 89 | 0.0 | 0.0 | 0.00 | 0.00 | 0.00 | 99 | 1010.1 |
| 20260510072518 | 52 | 89 | 0.0 | 0.0 | 0.00 | 0.00 | 0.00 | 99 | 1010.4 |
| 20260510072013 | 52 | 89 | 0.0 | 0.0 | 0.00 | 0.00 | 0.00 | 99 | 1010.5 |
| 20260510071509 | 52 | 89 | 0.0 | 0.0 | 0.00 | 0.00 | 0.00 | 99 | 1010.5 |
| 20260510071008 | 52 | 89 | 0.0 | 0.0 | 0.00 | 0.00 | 0.00 | 99 | 1010.6 |
| 20260510070505 | 52 | 89 | 0.0 | 0.0 | 0.00 | 0.00 | 0.00 | 99 | 1010.5 |
| 20260510070000 | 52 | 105 | 0.0 | 0.0 | 0.00 | 0.00 | 0.00 | 99 | 1010.7 |
| 20260510065458 | 52 | 111 | 0.0 | 0.0 | 0.00 | 0.00 | 0.00 | 99 | 1010.7 |
| 20260510064954 | 52 | 114 | 0.0 | 0.0 | 0.00 | 0.00 | 0.00 | 99 | 1010.5 |
| 20260510064451 | 52 | 90 | 0.0 | 0.0 | 0.00 | 0.00 | 0.00 | 99 | 1010.8 |
| 20260510063947 | 52 | 119 | 0.0 | 0.0 | 0.00 | 0.00 | 0.00 | 99 | 1010.6 |
| 20260510063444 | 52 | 80 | 0.0 | 0.0 | 0.00 | 0.00 | 0.00 | 99 | 1010.7 |
| 20260510062943 | 52 | 84 | 0.0 | 0.0 | 0.00 | 0.00 | 0.00 | 99 | 1010.7 |
| 20260510062442 | 52 | 88 | 0.0 | 0.0 | 0.00 | 0.00 | 0.00 | 99 | 1010.5 |
| 20260510061938 | 52 | 90 | 0.0 | 0.0 | 0.00 | 0.00 | 0.00 | 99 | 1010.4 |
| 20260510061435 | 52 | 83 | 0.0 | 0.0 | 0.00 | 0.00 | 0.00 | 99 | 1010.7 |
| 20260510060931 | 52 | 82 | 0.0 | 0.0 | 0.00 | 0.00 | 0.00 | 99 | 1010.5 |
| 20260510060428 | 52 | 86 | 0.0 | 0.0 | 0.00 | 0.00 | 0.00 | 99 | 1010.5 |
| 20260510055924 | 52 | 102 | 0.0 | 0.0 | 0.00 | 0.00 | 0.00 | 99 | 1010.4 |
| 20260510055420 | 52 | 102 | 0.0 | 0.0 | 0.00 | 0.00 | 0.00 | 99 | 1010.2 |
| 20260510054918 | 52 | 102 | 0.0 | 0.0 | 0.00 | 0.00 | 0.00 | 99 | 1010.4 |
| 20260510054414 | 52 | 102 | 0.0 | 0.0 | 0.00 | 0.00 | 0.00 | 99 | 1010.4 |
| 20260510053909 | 52 | 102 | 0.0 | 0.0 | 0.00 | 0.00 | 0.00 | 99 | 1010.3 |
| 20260510053405 | 52 | 102 | 0.0 | 0.0 | 0.00 | 0.00 | 0.00 | 99 | 1010.3 |
| 20260510052901 | 52 | 102 | 0.0 | 0.0 | 0.00 | 0.00 | 0.00 | 99 | 1010.4 |
| 20260510052357 | 52 | 102 | 0.0 | 0.0 | 0.00 | 0.00 | 0.00 | 99 | 1010.3 |
| 20260510051853 | 52 | 102 | 0.0 | 0.0 | 0.00 | 0.00 | 0.00 | 99 | 1010.4 |
| 20260510051350 | 52 | 102 | 0.0 | 0.0 | 0.00 | 0.00 | 0.00 | 99 | 1010.6 |
| 20260510050846 | 52 | 102 | 0.0 | 0.0 | 0.00 | 0.00 | 0.00 | 99 | 1010.5 |
| 20260510050343 | 52 | 102 | 0.0 | 0.0 | 0.00 | 0.00 | 0.00 | 99 | 1010.6 |
| 20260510045840 | 52 | 102 | 0.0 | 0.0 | 0.00 | 0.00 | 0.00 | 99 | 1010.6 |
| 20260510045337 | 52 | 102 | 0.0 | 0.0 | 0.00 | 0.00 | 0.00 | 99 | 1010.5 |
| 20260510044834 | 52 | 102 | 0.0 | 0.0 | 0.00 | 0.00 | 0.00 | 99 | 1010.7 |
| 20260510044331 | 52 | 102 | 0.0 | 0.0 | 0.00 | 0.00 | 0.00 | 99 | 1010.6 |
| 20260510043828 | 52 | 102 | 0.0 | 0.0 | 0.00 | 0.00 | 0.00 | 99 | 1010.6 |
| 20260510043323 | 52 | 103 | 0.0 | 0.0 | 0.00 | 0.00 | 0.00 | 99 | 1010.7 |
| 20260510042821 | 52 | 104 | 0.0 | 0.0 | 0.00 | 0.00 | 0.00 | 99 | 1010.6 |
| 20260510042317 | 52 | 104 | 0.0 | 0.0 | 0.00 | 0.00 | 0.00 | 99 | 1010.7 |
| 20260510041814 | 52 | 104 | 0.0 | 0.0 | 0.00 | 0.00 | 0.00 | 99 | 1010.7 |
| 20260510041311 | 52 | 104 | 0.0 | 0.0 | 0.00 | 0.00 | 0.00 | 99 | 1010.5 |
| 20260510040808 | 52 | 104 | 0.0 | 0.0 | 0.00 | 0.00 | 0.00 | 99 | 1010.5 |
| 20260510040305 | 52 | 100 | 0.0 | 0.0 | 0.00 | 0.00 | 0.00 | 99 | 1010.6 |
| 20260510035800 | 52 | 100 | 0.0 | 0.0 | 0.00 | 0.28 | 0.28 | 99 | 1010.7 |
| 20260510035256 | 52 | 100 | 0.0 | 0.0 | 0.00 | 0.28 | 0.28 | 98 | 1010.6 |
| 20260510034752 | 52 | 100 | 0.0 | 0.0 | 0.00 | 0.28 | 0.28 | 98 | 1010.4 |
| 20260510034250 | 52 | 100 | 0.0 | 0.0 | 0.00 | 0.28 | 0.28 | 98 | 1010.3 |
| 20260510033747 | 52 | 101 | 0.0 | 0.0 | 0.00 | 0.28 | 0.28 | 98 | 1010.4 |
| 20260510033244 | 52 | 98 | 0.0 | 0.0 | 0.00 | 0.28 | 0.28 | 98 | 1010.2 |
| 20260510032740 | 51 | 98 | 0.0 | 0.0 | 0.00 | 0.28 | 0.28 | 98 | 1010.4 |
| 20260510032236 | 51 | 98 | 0.0 | 0.0 | 0.00 | 0.28 | 0.28 | 98 | 1010.4 |
| 20260510031731 | 51 | 98 | 0.0 | 0.0 | 0.00 | 0.28 | 0.28 | 98 | 1010.2 |
| 20260510031227 | 51 | 98 | 0.0 | 0.0 | 0.00 | 0.28 | 0.28 | 98 | 1010.2 |
| 20260510030727 | 51 | 98 | 0.0 | 0.0 | 0.00 | 0.28 | 0.28 | 98 | 1010.2 |
| 20260510030225 | 51 | 87 | 0.0 | 0.0 | 0.00 | 0.28 | 0.28 | 98 | 1010.2 |
| 20260510025722 | 51 | 100 | 0.0 | 0.0 | 0.00 | 0.28 | 0.28 | 98 | 1010.1 |
| 20260510025219 | 51 | 100 | 0.0 | 0.0 | 0.00 | 0.28 | 0.28 | 98 | 1010.6 |
| 20260510024716 | 51 | 100 | 0.0 | 0.0 | 0.00 | 0.28 | 0.28 | 98 | 1010.4 |
| 20260510024212 | 51 | 100 | 0.0 | 0.0 | 0.00 | 0.28 | 0.28 | 98 | 1010.3 |
| 20260510023708 | 51 | 101 | 0.0 | 0.0 | 0.00 | 0.28 | 0.28 | 98 | 1010.5 |
| 20260510023205 | 51 | 107 | 0.0 | 0.0 | 0.00 | 0.28 | 0.28 | 98 | 1010.3 |
| 20260510022701 | 50 | 107 | 0.0 | 0.0 | 0.00 | 0.28 | 0.28 | 98 | 1010.4 |
| 20260510022156 | 50 | 107 | 0.0 | 0.0 | 0.00 | 0.28 | 0.28 | 98 | 1010.5 |
| 20260510021651 | 50 | 107 | 0.0 | 0.0 | 0.00 | 0.28 | 0.28 | 98 | 1010.4 |
| 20260510021149 | 50 | 107 | 0.0 | 0.0 | 0.00 | 0.28 | 0.28 | 98 | 1010.4 |
| 20260510020643 | 50 | 107 | 0.0 | 0.0 | 0.00 | 0.28 | 0.28 | 98 | 1010.5 |
| 20260510020139 | 51 | 107 | 0.0 | 0.0 | 0.00 | 0.28 | 0.28 | 98 | 1010.4 |
| 20260510015635 | 51 | 108 | 0.0 | 0.0 | 0.00 | 0.28 | 0.28 | 98 | 1010.2 |
| 20260510015132 | 52 | 108 | 0.0 | 0.0 | 0.00 | 0.28 | 0.28 | 98 | 1010.5 |
| 20260510014627 | 52 | 108 | 0.0 | 0.0 | 0.00 | 0.28 | 0.28 | 98 | 1010.4 |
| 20260510014125 | 52 | 108 | 0.0 | 0.0 | 0.00 | 0.28 | 0.28 | 98 | 1010.3 |
| 20260510013625 | 52 | 108 | 0.0 | 0.0 | 0.00 | 0.28 | 0.28 | 98 | 1010.2 |
| 20260510013121 | 52 | 108 | 0.0 | 0.0 | 0.00 | 0.28 | 0.28 | 98 | 1010.4 |
| 20260510012620 | 52 | 108 | 0.0 | 0.0 | 0.00 | 0.28 | 0.28 | 98 | 1010.2 |
| 20260510012117 | 52 | 103 | 0.0 | 0.0 | 0.00 | 0.28 | 0.28 | 98 | 1010.3 |
| 20260510011616 | 52 | 103 | 0.0 | 0.0 | 0.00 | 0.28 | 0.28 | 98 | 1010.2 |
| 20260510011112 | 51 | 103 | 0.0 | 0.0 | 0.00 | 0.28 | 0.28 | 98 | 1010.2 |
| 20260510010609 | 51 | 103 | 0.0 | 0.0 | 0.00 | 0.28 | 0.28 | 98 | 1010.1 |
| 20260510010106 | 51 | 103 | 0.0 | 0.0 | 0.00 | 0.28 | 0.28 | 97 | 1009.8 |
| 20260510005601 | 52 | 103 | 0.0 | 0.0 | 0.00 | 0.28 | 0.28 | 97 | 1010.0 |
| 20260510005059 | 52 | 103 | 0.0 | 0.0 | 0.00 | 0.28 | 0.28 | 97 | 1009.9 |
| 20260510004557 | 52 | 103 | 0.0 | 0.0 | 0.00 | 0.28 | 0.28 | 97 | 1009.9 |
| 20260510004055 | 52 | 103 | 0.0 | 0.0 | 0.00 | 0.28 | 0.28 | 97 | 1009.7 |
| 20260510003551 | 52 | 103 | 0.0 | 0.0 | 0.00 | 0.28 | 0.28 | 97 | 1009.6 |
| 20260510003047 | 52 | 103 | 0.0 | 0.0 | 0.00 | 0.28 | 0.28 | 97 | 1009.8 |
| 20260510002542 | 52 | 103 | 0.0 | 0.0 | 0.00 | 0.28 | 0.28 | 97 | 1009.8 |
| 20260510002039 | 53 | 103 | 0.0 | 0.0 | 0.00 | 0.28 | 0.28 | 97 | 1009.9 |
| 20260510001537 | 53 | 103 | 0.0 | 0.0 | 0.00 | 0.28 | 0.28 | 97 | 1009.9 |
| 20260510001035 | 53 | 103 | 0.0 | 0.0 | 0.00 | 0.28 | 0.28 | 97 | 1010.0 |
| 20260510000530 | 53 | 103 | 0.0 | 0.0 | 0.00 | 0.28 | 0.28 | 97 | 1009.7 |
| 20260510000027 | 53 | 103 | 0.0 | 0.0 | 0.00 | 0.28 | 0.28 | 97 | 1010.0 |
| 20260509235524 | 53 | 102 | 0.0 | 0.0 | 0.00 | 0.28 | 0.28 | 97 | 1009.8 |
| 20260509235021 | 53 | 97 | 0.0 | 0.0 | 0.00 | 0.28 | 0.28 | 97 | 1009.6 |
| 20260509234517 | 53 | 93 | 0.0 | 0.0 | 0.00 | 0.28 | 0.28 | 97 | 1009.6 |
| 20260509234015 | 53 | 93 | 0.0 | 0.0 | 0.00 | 0.28 | 0.28 | 97 | 1009.7 |
| 20260509233512 | 54 | 93 | 0.0 | 0.0 | 0.00 | 0.28 | 0.28 | 97 | 1009.5 |
| 20260509233009 | 54 | 93 | 0.0 | 0.0 | 0.00 | 0.28 | 0.28 | 97 | 1009.4 |
| 20260509232506 | 54 | 92 | 0.0 | 0.0 | 0.00 | 0.28 | 0.28 | 97 | 1009.5 |
| 20260509232002 | 54 | 92 | 0.0 | 0.0 | 0.00 | 0.28 | 0.28 | 97 | 1009.5 |
| 20260509231459 | 54 | 92 | 0.0 | 0.0 | 0.00 | 0.28 | 0.28 | 97 | 1009.5 |
| 20260509230956 | 55 | 89 | 0.0 | 0.0 | 0.00 | 0.28 | 0.28 | 97 | 1009.4 |
| 20260509230453 | 55 | 86 | 0.0 | 0.0 | 0.00 | 0.28 | 0.28 | 97 | 1009.4 |
| 20260509225949 | 55 | 88 | 0.0 | 0.0 | 0.00 | 0.28 | 0.28 | 97 | 1009.5 |
| 20260509225446 | 54 | 100 | 0.0 | 0.0 | 0.00 | 0.28 | 0.28 | 96 | 1009.8 |
| 20260509224941 | 55 | 100 | 0.0 | 0.0 | 0.00 | 0.28 | 0.28 | 96 | 1009.8 |
| 20260509224437 | 55 | 100 | 0.0 | 0.0 | 0.00 | 0.28 | 0.28 | 96 | 1010.0 |
| 20260509223934 | 55 | 100 | 0.0 | 0.0 | 0.00 | 0.28 | 0.28 | 96 | 1010.1 |
| 20260509223431 | 55 | 100 | 0.0 | 0.0 | 0.00 | 0.28 | 0.28 | 96 | 1009.9 |
| 20260509222928 | 56 | 96 | 0.0 | 0.0 | 0.00 | 0.28 | 0.28 | 97 | 1009.9 |
| 20260509222423 | 55 | 96 | 0.0 | 0.0 | 0.00 | 0.28 | 0.28 | 97 | 1009.7 |
| 20260509221919 | 55 | 96 | 0.0 | 0.0 | 0.00 | 0.28 | 0.28 | 97 | 1009.8 |
| 20260509221416 | 55 | 96 | 0.0 | 0.0 | 0.00 | 0.28 | 0.28 | 96 | 1009.8 |
| 20260509220912 | 55 | 96 | 0.0 | 0.0 | 0.00 | 0.28 | 0.28 | 97 | 1009.8 |
| 20260509220408 | 55 | 96 | 0.0 | 0.0 | 0.00 | 0.28 | 0.28 | 97 | 1009.8 |
| 20260509215904 | 54 | 96 | 0.0 | 0.0 | 0.00 | 0.28 | 0.28 | 96 | 1010.1 |
| 20260509215400 | 55 | 96 | 0.0 | 0.0 | 0.12 | 0.28 | 0.28 | 96 | 1010.1 |
| 20260509214857 | 54 | 96 | 0.0 | 0.0 | 0.17 | 0.28 | 0.28 | 96 | 1010.0 |
| 20260509214355 | 54 | 89 | 0.0 | 0.0 | 0.26 | 0.27 | 0.27 | 96 | 1010.0 |
| 20260509213852 | 54 | 88 | 0.0 | 0.0 | 0.26 | 0.25 | 0.25 | 96 | 1010.1 |
| 20260509213347 | 54 | 88 | 0.0 | 0.0 | 0.24 | 0.23 | 0.23 | 96 | 1010.3 |
| 20260509212845 | 54 | 72 | 0.0 | 0.0 | 0.17 | 0.21 | 0.21 | 96 | 1010.1 |
| 20260509212342 | 54 | 100 | 0.0 | 0.0 | 0.12 | 0.19 | 0.19 | 96 | 1010.2 |
| 20260509211838 | 54 | 99 | 0.0 | 0.0 | 0.12 | 0.18 | 0.18 | 95 | 1010.2 |
| 20260509211334 | 55 | 100 | 0.0 | 0.0 | 0.05 | 0.17 | 0.17 | 95 | 1010.2 |
| 20260509210831 | 54 | 98 | 0.0 | 0.0 | 0.12 | 0.17 | 0.17 | 95 | 1010.2 |
| 20260509210328 | 55 | 98 | 0.0 | 0.0 | 0.31 | 0.16 | 0.16 | 95 | 1010.1 |
| 20260509205828 | 55 | 95 | 0.0 | 0.9 | 0.31 | 0.15 | 0.15 | 94 | 1009.8 |
| 20260509205323 | 55 | 92 | 0.0 | 0.0 | 0.12 | 0.11 | 0.11 | 94 | 1010.2 |
| 20260509204820 | 55 | 92 | 0.0 | 0.0 | 0.05 | 0.10 | 0.10 | 94 | 1010.1 |
| 20260509204316 | 55 | 92 | 0.0 | 0.0 | 0.00 | 0.09 | 0.09 | 94 | 1010.1 |
| 20260509203812 | 55 | 85 | 0.0 | 0.0 | 0.00 | 0.09 | 0.09 | 94 | 1010.4 |
| 20260509203309 | 55 | 85 | 0.0 | 0.0 | 0.00 | 0.09 | 0.09 | 93 | 1010.1 |
| 20260509202805 | 55 | 75 | 0.0 | 0.9 | 0.07 | 0.09 | 0.09 | 93 | 1010.1 |
| 20260509202305 | 55 | 87 | 0.0 | 0.0 | 0.12 | 0.09 | 0.09 | 93 | 1010.2 |
| 20260509201801 | 55 | 87 | 0.0 | 0.0 | 0.05 | 0.08 | 0.08 | 92 | 1010.3 |
| 20260509201258 | 55 | 98 | 0.0 | 0.0 | 0.12 | 0.08 | 0.08 | 92 | 1010.6 |
| 20260509200754 | 55 | 98 | 0.0 | 0.0 | 0.12 | 0.07 | 0.07 | 91 | 1010.6 |
| 20260509200249 | 56 | 88 | 0.0 | 0.0 | 0.12 | 0.06 | 0.06 | 91 | 1010.4 |
| 20260509195747 | 56 | 84 | 0.0 | 0.0 | 0.07 | 0.05 | 0.05 | 90 | 1010.6 |
| 20260509195242 | 56 | 87 | 0.0 | 0.0 | 0.05 | 0.04 | 0.04 | 89 | 1010.6 |
| 20260509194742 | 56 | 110 | 0.0 | 0.0 | 0.05 | 0.04 | 0.04 | 87 | 1010.7 |
| 20260509194238 | 57 | 117 | 0.0 | 0.0 | 0.00 | 0.03 | 0.03 | 86 | 1010.7 |
| 20260509193735 | 57 | 89 | 0.0 | 0.0 | 0.00 | 0.03 | 0.03 | 85 | 1010.6 |
| 20260509193235 | 57 | 99 | 0.0 | 0.0 | 0.00 | 0.03 | 0.03 | 84 | 1010.5 |
| 20260509192731 | 58 | 121 | 0.0 | 0.9 | 0.00 | 0.03 | 0.03 | 85 | 1010.4 |
| 20260509192226 | 57 | 127 | 0.9 | 0.9 | 0.00 | 0.03 | 0.03 | 84 | 1010.5 |
| 20260509191722 | 57 | 98 | 0.0 | 0.0 | 0.00 | 0.03 | 0.03 | 84 | 1010.5 |
| 20260509191219 | 57 | 96 | 0.0 | 0.0 | 0.00 | 0.03 | 0.03 | 86 | 1010.4 |
| 20260509190715 | 57 | 84 | 0.0 | 0.0 | 0.00 | 0.03 | 0.03 | 86 | 1010.4 |
| 20260509190212 | 57 | 16 | 0.9 | 0.9 | 0.00 | 0.03 | 0.03 | 86 | 1010.4 |
| 20260509185710 | 57 | 63 | 0.0 | 0.0 | 0.00 | 0.03 | 0.03 | 86 | 1010.5 |
| 20260509185205 | 57 | 101 | 0.0 | 0.0 | 0.00 | 0.03 | 0.03 | 85 | 1010.4 |
| 20260509184703 | 57 | 9 | 2.6 | 2.6 | 0.07 | 0.03 | 0.03 | 84 | 1010.5 |
| 20260509184200 | 57 | 129 | 0.0 | 0.0 | 0.07 | 0.03 | 0.03 | 85 | 1010.1 |
| 20260509183656 | 57 | 44 | 0.0 | 0.0 | 0.00 | 0.02 | 0.02 | 85 | 1010.7 |
| 20260509183152 | 57 | 76 | 0.0 | 0.0 | 0.05 | 0.02 | 0.02 | 85 | 1010.8 |
| 20260509182647 | 58 | 105 | 0.0 | 0.0 | 0.05 | 0.02 | 0.02 | 84 | 1010.9 |
| 20260509182145 | 58 | 87 | 0.0 | 0.0 | 0.00 | 0.01 | 0.01 | 83 | 1010.9 |
| 20260509181643 | 58 | 281 | 0.9 | 0.9 | 0.00 | 0.01 | 0.01 | 84 | 1010.9 |
| 20260509181140 | 58 | 93 | 0.0 | 0.0 | 0.07 | 0.01 | 0.01 | 83 | 1010.8 |
| 20260509180637 | 59 | 80 | 0.0 | 0.0 | 0.07 | 0.01 | 0.01 | 80 | 1011.1 |
| 20260509180133 | 60 | 95 | 0.0 | 0.0 | 0.00 | 0.00 | 0.00 | 76 | 1010.9 |
| 20260509175629 | 61 | 110 | 0.0 | 0.0 | 0.00 | 0.00 | 0.00 | 71 | 1010.7 |
| 20260509175126 | 62 | 107 | 0.0 | 0.0 | 0.00 | 0.00 | 0.00 | 67 | 1010.4 |
| 20260509174622 | 62 | 94 | 0.9 | 1.7 | 0.00 | 0.00 | 0.00 | 65 | 1010.4 |
| 20260509174117 | 62 | 110 | 0.0 | 0.0 | 0.00 | 0.00 | 0.00 | 63 | 1010.4 |
| 20260509173613 | 63 | 104 | 0.0 | 0.0 | 0.00 | 0.00 | 0.00 | 63 | 1010.3 |
| 20260509173109 | 63 | 105 | 0.0 | 0.0 | 0.00 | 0.00 | 0.00 | 62 | 1010.5 |
| 20260509172606 | 63 | 129 | 0.0 | 0.9 | 0.00 | 0.00 | 0.00 | 63 | 1010.3 |
| 20260509172102 | 64 | 112 | 0.0 | 0.0 | 0.00 | 0.00 | 0.00 | 62 | 1010.3 |
| 20260509171558 | 64 | 115 | 0.0 | 0.9 | 0.00 | 0.00 | 0.00 | 63 | 1010.3 |
| 20260509171054 | 63 | 113 | 0.0 | 0.0 | 0.00 | 0.00 | 0.00 | 62 | 1010.3 |
| 20260509170550 | 63 | 113 | 0.0 | 0.9 | 0.00 | 0.00 | 0.00 | 63 | 1010.2 |
| 20260509170047 | 63 | 96 | 0.0 | 0.0 | 0.00 | 0.00 | 0.00 | 63 | 1010.3 |
| 20260509165545 | 62 | 113 | 0.0 | 0.0 | 0.00 | 0.00 | 0.00 | 63 | 1010.4 |
| 20260509165041 | 62 | 107 | 0.0 | 0.0 | 0.00 | 0.00 | 0.00 | 64 | 1010.3 |